UNITE (44031 NORAD) Tracking and Keplerian Element Data

This shows tracking and keplerian element data for the satellite.

Feedback or suggestion? Click here.




ElementValue
Catalog44031
NameUNITE
Epoch Orbit352
Epoch Day53.89130971
Epoch Year2019
RAAN209.4261
Inclination51.6385
Eccentricity0.0003603
Argument of Perigee75.921
Mean Anonmoly284.2181
Mean Motion15.54089569
Decay Rate6.935E-05
L11 44031U 98067PX 19053.89130971 .00006935 00000-0 11206-3 0 9994
L22 44031 51.6385 209.4261 0003603 75.9210 284.2181 15.54089569 3520

Live tracking and technical data element details for UNITE (NORAD 44031). UNITE can be tracked NOW for your location showing map with azimuth and elevation plus other details from your city location.

Track the satellite on the map from your city or location and see movement details for azimuth, elevation, latitude, longitude, range, height, and movement on the map or in text.







IsCatalogInMostPopularTable: catalog: 44031, numindb: 11
Update: records affected: 1



GetName: 44031 UNITE

Hit Count: updated at: Sat, 23 Feb 2019 16:49:21 GMT